Home   Weather   Fushun   Past weeks

Flag for China Past Weather in Fushun, Liaoning, China — Yesterday and Last 2 Weeks

Now
66 °F

Clear.


Feels Like: 66 °F
Forecast: 61 / 79 °F
Wind: 1 mph from North

Location: Shenyang / Taoxian

Current Time: Sep 25, 2016 at 8:24:52 PM

Latest Report: Sep 25, 2016 at 8:00 PM


Visibility: 10 mi

Pressure: 30.01 "Hg

Humidity: 60%

Dew Point: 52 °F

Location of FushunLocation

Past Weather in Fushun — Graph

°F

Fushun Temperature Yesterday

Maximum temperature yesterday: 79 °F (at 11:30 AM)
Minimum temperature yesterday: 63 °F (at 12:00 AM)
Average temperature yesterday: 72 °F

High & Low Weather Summary for the Past Weeks

 TemperatureHumidityPressure
High81 °F (Sep 14, 1:30 PM)100% (Sep 11, 2:30 AM)30.18 "Hg (Sep 11, 2:30 AM)
Low46 °F (Sep 20, 6:00 AM)31% (Sep 19, 12:30 PM)29.77 "Hg (Sep 24, 2:30 PM)
Average66 °F72%30.01 "Hg
* Reported Sep 10 7:00 PM — Sep 25 7:00 PM, Fushun, Weather by CustomWeather, © 2016

Note: Actual official high and low records may vary slightly from our data, if they occured in-between our weather recording intervals... More about our weather records

Advertising

Fushun Weather History for the Previous 24 Hours

Scroll right to see more
 ConditionsComfort  
Time TempWeatherWind HumidityBarometerVisibility
7:00 PM
Sun, Sep 25
68 °FClear.6 mph56%30.01 "Hg10 mi
6:30 PM68 °FClear.6 mph53%30.01 "Hg10 mi
6:00 PM68 °FClear.6 mph53%30.01 "Hg10 mi
5:30 PM73 °FPassing clouds.3 mph44%29.98 "HgN/A
5:00 PM73 °FSunny.1 mph44%29.98 "Hg10 mi
4:30 PM73 °FPassing clouds.3 mph47%29.98 "HgN/A
4:00 PM75 °FPassing clouds.3 mph41%29.98 "HgN/A
3:30 PM75 °FPassing clouds.3 mph41%29.98 "HgN/A
3:00 PM75 °FPassing clouds.3 mph41%29.98 "HgN/A
2:30 PM77 °FSunny.1 mph42%30.01 "Hg10 mi
2:00 PM75 °FPassing clouds.3 mph44%30.01 "HgN/A
1:30 PM75 °FSunny.3 mph44%30.01 "Hg10 mi
1:00 PM73 °FPassing clouds.3 mph47%30.01 "HgN/A
12:30 PM73 °FSunny.6 mph44%30.04 "Hg10 mi
12:00 PM73 °FSunny.3 mph44%30.04 "Hg10 mi
11:30 AM73 °FPassing clouds.6 mph47%30.04 "HgN/A
11:00 AM73 °FPassing clouds.6 mph50%30.04 "HgN/A
10:30 AM72 °FPassing clouds.6 mph50%30.04 "HgN/A
10:00 AM72 °FPassing clouds.6 mph50%30.04 "HgN/A
9:30 AM70 °FPartly sunny.8 mph50%30.07 "HgN/A
9:00 AM70 °FPartly sunny.6 mph53%30.04 "HgN/A
8:30 AM68 °FPartly sunny.3 mph56%30.04 "HgN/A
8:00 AM66 °FPartly sunny.3 mph64%30.04 "HgN/A
7:30 AM66 °FPartly sunny.3 mph68%30.01 "HgN/A
7:00 AM64 °FPartly sunny.3 mph73%30.01 "HgN/A
6:30 AM64 °FPartly sunny.3 mph73%30.01 "HgN/A
6:00 AM64 °FOvercast.3 mph73%29.98 "HgN/A
5:30 AM64 °FOvercast.6 mph73%29.98 "HgN/A
5:00 AM64 °FPassing clouds.6 mph68%29.95 "HgN/A
4:30 AM66 °FOvercast.6 mph60%29.95 "HgN/A
4:00 AM66 °FPassing clouds.6 mph78%29.95 "HgN/A
3:30 AM66 °FOvercast.1 mph88%29.92 "HgN/A
3:00 AM66 °FOvercast.1 mph88%29.92 "HgN/A
2:30 AM66 °FPassing clouds.1 mph88%29.92 "HgN/A
2:00 AM66 °FPassing clouds.3 mph83%29.92 "HgN/A
1:30 AM66 °FPassing clouds.1 mph83%29.89 "HgN/A
1:00 AM66 °FPassing clouds.3 mph83%29.89 "HgN/A
12:30 AM66 °FPassing clouds.3 mph83%29.89 "HgN/A
12:00 AM66 °FClear.1 mph83%29.89 "Hg10 mi
11:30 PM
Sat, Sep 24
68 °FClear.1 mph73%29.86 "Hg10 mi
11:00 PM68 °FPassing clouds.6 mph73%29.86 "HgN/A
10:30 PM68 °FPassing clouds.6 mph73%29.83 "HgN/A
10:00 PM68 °FPassing clouds.6 mph73%29.83 "HgN/A
9:30 PM70 °FPassing clouds.8 mph69%29.83 "HgN/A
9:00 PM72 °FPassing clouds.8 mph65%29.80 "HgN/A
8:30 PM72 °FPassing clouds.10 mph65%29.77 "HgN/A
8:00 PM72 °FPassing clouds.8 mph65%29.80 "HgN/A
Weather by CustomWeather, © 2016

See weather overviewHow to use our weather pages